Weather History for Aurora, OR

Change the Weather History Date:

Sunday, December 30, 2012

  Actual Average Record
Temperature  
Mean Temperature 35 °F -  
Max Temperature 42 °F - 57 °F (1998)
Min Temperature 27 °F - 26 °F (2003)
Degree Days  
Heating Degree Days 30    
Month to date heating degree days 683  
Since 1 July heating degree days 1626  
Cooling Degree Days 0    
Month to date cooling degree days 0  
Year to date cooling degree days 295  
Moisture  
Dew Point 31 °F    
Average Humidity 85    
Maximum Humidity 100    
Minimum Humidity 70    
Precipitation  
Precipitation 0.00 in - 1.54 in (2005)
Month to date precipitation 7.59  
Year to date precipitation 52.72  
Sea Level Pressure  
Sea Level Pressure 30.28 in    
Wind  
Wind Speed 2 mph (NNE)    
Max Wind Speed 8 mph    
Max Gust Speed 9 mph    
Visibility 8 miles    
Events Fog    
T = Trace of Precipitation, MM = Missing Value Source: NWS Daily Summary

Daily Weather History Graph

Daily Weather History Graph

Search for Another Location

Airport:

Trip Planner

Search our weather history database for the weather conditions in past years. The results will help you decide how hot, cold, wet, or windy it might be!

Date:

Astronomy

Dec. 30, 2012 Rise Set
Actual Time 7:50 AM PST 4:37 PM PST
Civil Twilight 7:16 AM PST 5:11 PM PST
Nautical Twilight 6:38 AM PST 5:49 PM PST
Astronomical Twilight 6:03 AM PST 6:24 PM PST
Moon 7:22 PM PST (12/30) 8:55 AM PST (12/30)
Length of Visible Light 9h 55m
Length of Day
8h 47m
Waning Gibbous, 95% of the Moon is Illuminated
Dec 30
Waning Gibbous
Jan 4
Last Quarter
Jan 11
New
Jan 18
First Quarter
Jan 26
Full

Hourly Weather History & Observations

Time (PST) Temp. Windchill Dew Point Humidity Pressure Visibility Wind Dir Wind Speed Gust Speed Precip Events Conditions
12:08 AM 37.4 °F - 35.6 °F 93% 30.23 in 7.0 mi Calm Calm - N/A   Overcast
12:41 AM 37.4 °F - 35.6 °F 93% 30.23 in 5.0 mi Calm Calm - N/A   Overcast
12:53 AM 37.0 °F 34.5 °F 36.0 °F 96% 30.24 in 6.0 mi NNE 3.5 mph - N/A   Overcast
1:35 AM 37.4 °F 33.8 °F 35.6 °F 93% 30.23 in 6.0 mi NNE 4.6 mph - N/A   Overcast
1:53 AM 37.0 °F 34.5 °F 35.1 °F 93% 30.25 in 6.0 mi NNW 3.5 mph - N/A   Overcast
2:14 AM 37.4 °F 34.9 °F 35.6 °F 93% 30.25 in 6.0 mi NNW 3.5 mph - N/A   Overcast
2:53 AM 37.0 °F 31.6 °F 35.1 °F 93% 30.26 in 9.0 mi North 6.9 mph - N/A   Overcast
3:53 AM 36.0 °F 30.3 °F 32.0 °F 86% 30.26 in 10.0 mi NE 6.9 mph - N/A   Overcast
4:13 AM 35.6 °F 31.7 °F 33.8 °F 93% 30.25 in 10.0 mi North 4.6 mph - N/A   Overcast
4:53 AM 34.0 °F 31.0 °F 32.0 °F 92% 30.25 in 10.0 mi NNE 3.5 mph - N/A   Overcast
5:29 AM 33.8 °F 28.6 °F 30.2 °F 87% 30.25 in 10.0 mi NNW 5.8 mph - N/A   Overcast
5:49 AM 33.8 °F 29.6 °F 28.4 °F 81% 30.26 in 10.0 mi North 4.6 mph - N/A   Scattered Clouds
5:53 AM 32.0 °F 26.4 °F 28.9 °F 88% 30.27 in 10.0 mi North 5.8 mph - N/A   Partly Cloudy
6:53 AM 30.9 °F - 28.0 °F 89% 30.28 in 10.0 mi Calm Calm - N/A   Clear
7:53 AM 30.9 °F - 28.9 °F 92% 30.28 in 10.0 mi Calm Calm - N/A   Clear
8:27 AM 30.2 °F 26.7 °F 28.4 °F 93% 30.29 in 10.0 mi NNW 3.5 mph - N/A   Mostly Cloudy
8:53 AM 32.0 °F 28.7 °F 30.0 °F 92% 30.31 in 10.0 mi North 3.5 mph - N/A   Overcast
9:53 AM 33.1 °F - 28.9 °F 85% 30.32 in 10.0 mi Calm Calm - N/A   Partly Cloudy
10:53 AM 37.9 °F - 30.0 °F 73% 30.32 in 10.0 mi Calm Calm - N/A   Clear
11:53 AM 39.0 °F - 30.9 °F 73% 30.31 in 10.0 mi Calm Calm - N/A   Clear
12:53 PM 39.9 °F 37.8 °F 32.0 °F 73% 30.29 in 10.0 mi SE 3.5 mph - N/A   Clear
1:53 PM 39.9 °F - 34.0 °F 79% 30.29 in 10.0 mi Calm Calm - N/A   Clear
2:53 PM 42.1 °F - 34.0 °F 73% 30.29 in 10.0 mi Calm Calm - N/A   Clear
3:53 PM 39.9 °F 36.7 °F 34.0 °F 79% 30.29 in 10.0 mi South 4.6 mph - N/A   Clear
4:53 PM 36.0 °F - 33.1 °F 89% 30.29 in 10.0 mi Calm Calm - N/A   Clear
5:53 PM 34.0 °F - 32.0 °F 92% 30.28 in 10.0 mi Calm Calm - N/A   Clear
6:53 PM 34.0 °F - 33.1 °F 96% 30.27 in 10.0 mi Calm Calm - N/A   Clear
7:53 PM 30.0 °F - 30.0 °F 100% 30.28 in 6.0 mi Calm Calm - N/A   Clear
8:06 PM 30.2 °F - 28.4 °F 93% 30.27 in 2.5 mi Calm Calm - N/A   Clear
8:13 PM 30.2 °F - 28.4 °F 93% 30.27 in 7.0 mi Calm Calm - N/A   Clear
8:53 PM 30.0 °F - 28.9 °F 96% 30.28 in 5.0 mi Calm Calm - N/A   Clear
9:53 PM 28.0 °F - 27.0 °F 96% 30.30 in 8.0 mi Calm Calm - N/A   Clear
10:37 PM 28.4 °F 24.6 °F 26.6 °F 93% 30.30 in 2.5 mi SE 3.5 mph - N/A   Partly Cloudy
10:40 PM 28.4 °F 23.3 °F 28.4 °F 100% 30.30 in 1.0 mi SE 4.6 mph - N/A   Mist
10:46 PM 28.4 °F 24.6 °F 28.4 °F 100% 30.30 in 0.2 mi ESE 3.5 mph - N/A Fog Light Freezing Fog
10:53 PM 28.0 °F - 28.0 °F 100% 30.31 in 0.2 mi Calm Calm - N/A Fog Light Freezing Fog
11:53 PM 27.0 °F - 26.1 °F 96% 30.31 in 0.2 mi Calm Calm - N/A Fog Light Freezing Fog